Date String (YYYY-MM-DD hh:mm:ss) UTC,Instrument flags,absolute air pressure of the measurement (hPa),sample flow rate (lpm),inlet stack bypass flow (lpm),air temperature of the measurement (°C),ambient temperature measured by the external sensor (°C),aerosol sample conditioner tube jacket temperature (°C),OPC LED temperature (°C),internal box temperature (°C),relative humidity of the measurement (%),span deviation,mass concentration of particles derived from Lorenz-Mie calculation of OPC scattering (μg/m³),mass concentration of particles derived from Lorenz-Mie calculation of OPC scattering (μg/m³),mass concentration of particles derived from Lorenz-Mie calculation of OPC scattering (μg/m³)
DateTimeUTC,F1_M11,P_M11,Q1_M11,Q2_M11,T1_M11,T2_M11,T3_M11,T4_M11,T5_M11,U1_M11,ZSPAN_M11,X0_M11,X2_M11,X1_M11
2023-11-13 17:00:00,SystemResetWarning,0835.9,5.00,000.00,025.1,024.3,000.0,033.2,026.6,10.6,0000.0,0014.49,0004.75,0003.89
2023-11-13 17:01:00,SystemResetWarning,0835.9,5.00,000.00,025.1,024.3,000.0,033.2,026.6,10.7,0000.0,0014.83,0004.73,0003.87
2023-11-13 17:02:00,SystemResetWarning,0835.9,5.00,000.00,025.1,024.4,000.0,033.3,026.6,10.6,0000.0,0014.71,0004.73,0003.88
2023-11-13 17:03:00,SystemResetWarning,0836.0,4.99,000.00,025.1,024.4,000.0,033.3,026.6,10.5,0000.0,0014.50,0004.73,0003.90
2023-11-13 17:04:00,SystemResetWarning,0835.9,5.00,000.00,025.1,024.4,000.0,033.3,026.7,10.5,0000.0,0014.91,0004.74,0003.89
2023-11-13 17:05:00,SystemResetWarning,0835.9,5.00,000.00,025.1,024.4,000.0,033.3,026.7,10.5,0000.0,0014.46,0004.79,0003.91
2023-11-13 17:06:00,SystemResetWarning,0835.9,5.00,000.00,025.2,024.4,000.0,033.3,026.7,10.5,0000.0,0013.96,0004.79,0003.92
2023-11-13 17:07:00,SystemResetWarning,0836.0,5.00,000.00,025.2,024.5,000.0,033.3,026.7,10.5,0000.0,0013.99,0004.80,0003.92
2023-11-13 17:08:00,SystemResetWarning,0835.9,5.00,000.00,025.2,024.5,000.0,033.4,026.7,10.4,0000.0,0014.38,0004.82,0003.92
2023-11-13 17:09:00,SystemResetWarning,0835.9,5.01,000.00,025.2,024.5,000.0,033.4,026.7,10.4,0000.0,0013.42,0004.81,0003.94
2023-11-13 17:10:00,SystemResetWarning,0835.9,5.00,000.00,025.2,024.5,000.0,033.4,026.7,10.3,0000.0,0012.16,0004.79,0003.93
2023-11-13 17:11:00,SystemResetWarning,0835.9,5.01,000.00,025.3,024.5,000.0,033.4,026.8,10.4,0000.0,0012.47,0004.76,0003.91
2023-11-13 17:12:00,SystemResetWarning,0835.9,5.00,000.00,025.3,024.5,000.0,033.4,026.8,10.4,0000.0,0011.90,0004.72,0003.90
2023-11-13 17:13:00,SystemResetWarning,0835.9,4.99,000.00,025.3,024.6,000.0,033.4,026.8,10.3,0000.0,0011.96,0004.72,0003.90
2023-11-13 17:14:00,SystemResetWarning,0835.9,4.99,000.00,025.3,024.6,000.0,033.4,026.8,10.4,0000.0,0011.75,0004.73,0003.90
2023-11-13 17:15:00,SystemResetWarning,0835.9,5.00,000.00,025.3,024.6,000.0,033.5,026.8,10.3,0000.0,0011.49,0004.73,0003.90
2023-11-13 17:16:00,SystemResetWarning,0835.9,5.00,000.00,025.3,024.6,000.0,033.5,026.9,10.2,0000.0,0010.96,0004.67,0003.87
2023-11-13 17:17:00,SystemResetWarning,0836.0,5.00,000.00,025.3,024.6,000.0,033.5,026.9,10.1,0000.0,0011.58,0004.63,0003.86
2023-11-13 17:18:00,SystemResetWarning,0835.9,5.01,000.00,025.4,024.7,000.0,033.5,026.9,10.0,0000.0,0011.61,0004.60,0003.84
2023-11-13 17:19:00,SystemResetWarning,0835.9,4.99,000.00,025.4,024.7,000.0,033.5,026.9,10.1,0000.0,0012.31,0004.59,0003.83
2023-11-13 17:20:00,SystemResetWarning,0835.9,5.00,000.00,025.4,024.7,000.0,033.5,026.9,9.9,0000.0,0011.74,0004.55,0003.82
2023-11-13 17:21:00,SystemResetWarning,0835.9,4.99,000.00,025.4,024.7,000.0,033.6,026.9,10.0,0000.0,0011.99,0004.55,0003.81
2023-11-13 17:22:00,SystemResetWarning,0835.9,5.00,000.00,025.4,024.7,000.0,033.6,026.9,9.9,0000.0,0012.11,0004.59,0003.81
2023-11-13 17:23:00,SystemResetWarning,0836.0,5.00,000.00,025.4,024.7,000.0,033.6,027.0,9.9,0000.0,0012.10,0004.58,0003.81
2023-11-13 17:24:00,SystemResetWarning,0835.9,5.00,000.00,025.4,024.7,000.0,033.6,027.0,9.8,0000.0,0012.74,0004.59,0003.80
2023-11-13 17:25:00,SystemResetWarning,0835.9,5.00,000.00,025.5,024.7,000.0,033.6,027.0,9.7,0000.0,0013.12,0004.61,0003.78
2023-11-13 17:26:00,SystemResetWarning,0835.9,5.00,000.00,025.5,024.8,000.0,033.6,027.0,9.5,0000.0,0013.28,0004.56,0003.77
2023-11-13 17:27:00,SystemResetWarning,0835.9,5.00,000.00,025.5,024.8,000.0,033.6,027.0,9.4,0000.0,0014.01,0004.55,0003.75
2023-11-13 17:28:00,SystemResetWarning,0835.9,5.00,000.00,025.5,024.8,000.0,033.7,027.0,9.3,0000.0,0013.67,0004.56,0003.75
2023-11-13 17:29:00,SystemResetWarning,0835.9,5.00,000.00,025.5,024.8,000.0,033.7,027.1,9.3,0000.0,0013.70,0004.54,0003.73
2023-11-13 17:30:00,SystemResetWarning,0835.9,5.01,000.00,025.5,024.8,000.0,033.7,027.1,9.4,0000.0,0013.39,0004.50,0003.72
2023-11-13 17:31:00,SystemResetWarning,0835.9,5.00,000.00,025.6,024.8,000.0,033.7,027.1,9.1,0000.0,0013.76,0004.50,0003.72
2023-11-13 17:32:00,SystemResetWarning,0835.9,5.00,000.00,025.6,024.9,000.0,033.7,027.1,8.7,0000.0,0014.33,0004.50,0003.72
2023-11-13 17:33:00,SystemResetWarning,0835.9,5.01,000.00,025.6,024.9,000.0,033.7,027.1,8.9,0000.0,0013.50,0004.46,0003.71
2023-11-13 17:34:00,SystemResetWarning,0835.9,5.00,000.00,025.6,024.9,000.0,033.8,027.2,9.3,0000.0,0012.93,0004.44,0003.71
2023-11-13 17:35:00,SystemResetWarning,0835.9,4.99,000.00,025.6,024.9,000.0,033.8,027.2,9.5,0000.0,0012.22,0004.41,0003.71
2023-11-13 17:36:00,SystemResetWarning,0835.9,4.99,000.00,025.7,024.9,000.0,033.8,027.2,9.4,0000.0,0011.63,0004.38,0003.72
2023-11-13 17:37:00,SystemResetWarning,0835.9,5.00,000.00,025.7,025.0,000.0,033.8,027.2,9.4,0000.0,0012.15,0004.39,0003.74
2023-11-13 17:38:00,SystemResetWarning,0835.9,5.00,000.00,025.7,025.0,000.0,033.8,027.2,9.4,0000.0,0011.37,0004.37,0003.75
2023-11-13 17:39:00,SystemResetWarning,0835.9,5.00,000.00,025.7,025.0,000.0,033.8,027.3,9.5,0000.0,0010.89,0004.34,0003.77
2023-11-13 17:40:00,SystemResetWarning,0835.9,5.00,000.00,025.7,025.0,000.0,033.9,027.3,9.4,0000.0,0010.65,0004.31,0003.78
2023-11-13 17:41:00,SystemResetWarning,0835.8,5.00,000.00,025.7,025.0,000.0,033.9,027.3,9.5,0000.0,0010.05,0004.33,0003.79
2023-11-13 17:42:00,SystemResetWarning,0835.8,5.01,000.00,025.8,025.1,000.0,033.9,027.3,9.6,0000.0,0009.63,0004.34,0003.79
2023-11-13 17:43:00,SystemResetWarning,0835.7,5.00,000.00,025.8,025.1,000.0,033.9,027.3,9.5,0000.0,0009.01,0004.33,0003.78
2023-11-13 17:44:00,SystemResetWarning,0835.7,5.00,000.00,025.8,025.1,000.0,033.9,027.3,9.5,0000.0,0008.78,0004.35,0003.78
2023-11-13 17:45:00,SystemResetWarning,0835.8,4.99,000.00,025.8,025.1,000.0,034.0,027.3,9.5,0000.0,0009.00,0004.38,0003.79
2023-11-13 17:46:00,SystemResetWarning,0835.7,5.00,000.00,025.8,025.1,000.0,034.0,027.3,9.6,0000.0,0009.31,0004.40,0003.80
2023-11-13 17:47:00,SystemResetWarning,0835.8,4.99,000.00,025.8,025.1,000.0,034.0,027.4,9.6,0000.0,0009.59,0004.43,0003.81
2023-11-13 17:48:00,SystemResetWarning,0835.6,5.01,000.00,025.9,025.1,000.0,034.0,027.4,9.6,0000.0,0009.26,0004.44,0003.82
2023-11-13 17:49:00,SystemResetWarning,0835.7,5.02,000.00,025.9,025.2,000.0,034.0,027.4,9.6,0000.0,0009.87,0004.48,0003.82
2023-11-13 17:50:00,SystemResetWarning,0835.6,5.00,000.00,025.9,025.2,000.0,034.0,027.5,9.7,0000.0,0010.35,0004.53,0003.83
2023-11-13 17:51:00,SystemResetWarning,0835.6,5.00,000.00,025.9,025.2,000.0,034.1,027.5,9.7,0000.0,0010.78,0004.55,0003.82
2023-11-13 17:52:00,SystemResetWarning,0835.6,4.99,000.00,025.9,025.2,000.0,034.1,027.5,9.7,0000.0,0011.08,0004.55,0003.82
2023-11-13 17:53:00,SystemResetWarning,0835.6,5.00,000.00,025.9,025.2,000.0,034.1,027.5,9.7,0000.0,0010.98,0004.53,0003.82
2023-11-13 17:54:00,SystemResetWarning,0835.6,5.00,000.00,026.0,025.3,000.0,034.1,027.5,9.6,0000.0,0011.00,0004.55,0003.83
2023-11-13 17:55:00,SystemResetWarning,0835.6,5.00,000.00,026.0,025.3,000.0,034.1,027.5,9.7,0000.0,0011.14,0004.57,0003.84
2023-11-13 17:56:00,SystemResetWarning,0835.6,5.00,000.00,026.0,025.3,000.0,034.1,027.5,9.7,0000.0,0011.55,0004.56,0003.84
2023-11-13 17:57:00,SystemResetWarning,0835.6,5.00,000.00,026.0,025.3,000.0,034.2,027.5,9.7,0000.0,0011.63,0004.54,0003.85
2023-11-13 17:58:00,SystemResetWarning,0835.6,5.00,000.00,026.0,025.3,000.0,034.2,027.5,9.8,0000.0,0011.48,0004.54,0003.85
2023-11-13 17:59:00,SystemResetWarning,0835.5,5.00,000.00,026.1,025.3,000.0,034.2,027.6,9.8,0000.0,0011.31,0004.53,0003.85
